Weather Roundup
Issued by NWS Chicago, IL

Home | Current Version | Previous Version | Text Only | Print | Product List | Glossary Off
Versions: 1 2 3 4 5 6 7 8 9 10 11 12 13 14 15 16 17 18 19 20 21 22 23 24 25 26 27 28 29 30 31 32 33 34 35 36 37 38 39 40 41 42 43 44 45 46 47 48 49 50

000
NZUS59 KLOT 181058
HRRLOT

CHICAGO AREA WEATHER ROUNDUP
NATIONAL WEATHER SERVICE CHICAGO/ROMEOVILLE IL
600 AM CDT FRI APR 18 2014

NOTE: "FAIR" INDICATES FEW OR NO CLOUDS BELOW 12,000 FEET WITH NO
SIGNIFICANT WEATHER AND/OR OBSTRUCTIONS TO VISIBILITY.

* THESE STATIONS ARE NOT UNDER NWS QUALITY CONTROL. THEY ALSO MAY NOT
  REPORT WEATHER SUCH AS PRECIPITATION OR FOG.

ILZ005-006-012>014-019>023-181200-
NORTHEAST ILLINOIS

CITY           SKY/WX    TMP DP  RH WIND       PRES   REMARKS
OHARE          PTCLDY    41  33  73 N6        30.28R
MIDWAY         PTCLDY    44  37  76 N7        30.28R
AURORA         CLEAR     33  31  92 N6        30.28R FOG     WCI  28
WAUKEGAN       CLEAR     37  32  82 N6        30.28R
DUPAGE AIRPORT CLEAR     35  33  92 N6        30.28R FOG     WCI  30
WHEELING       CLEAR     40  34  79 N6        30.29S
NORTHERLY IS     N/A     42  37  82 MISG        N/A
$$

WIZ051-052-058>065-066-070>072-181200-
SOUTHEAST WISCONSIN

CITY           SKY/WX    TMP DP  RH WIND       PRES   REMARKS
MILWAUKEE      PTCLDY    37  31  78 N6        30.31R
KENOSHA*       CLEAR     36  32  85 N7        30.28S
RACINE*        CLEAR     37  32  82 N9        30.31R
WAUKESHA       MOCLDY    34  30  86 N3        30.31R
$$

INZ001>003-010>013-019-020-181200-
NORTHWEST INDIANA

CITY           SKY/WX    TMP DP  RH WIND       PRES   REMARKS
GARY*          PTCLDY    43  37  81 N6        30.28R
MICHIGAN CITY* NOT AVBL
RENSSELAER*    NOT AVBL
VALPARAISO     CLOUDY    46  41  82 SW5       30.27R
$$

LMZ740>746-181200-
SOUTHERN LAKE MICHIGAN

STATION/POSITION TIME  SKY/WX   TEMP WIND        PRES    VSBY
                                AIR  DIR/SP/G
                 (UTC)          (F)  (DEG/KT/KT) (MB)    (MI)
HARRISON CRIB    1000            41  350/ 12/ 14   N/A
BURNHAM HARBOR   1000            42  360/ 13/ 14   N/A
CALUMET HARBOR   1000            42  340/  8/ 11 1025.7R
BURNS HARBOR     NOT AVBL
MICHIGAN CITY    1000            43  310/  8/ 12   N/A
$$

ABBREVIATIONS USED IN REMARKS
   TC - TEMPERATURE IN CELSIUS
  WCI - WIND CHILL INDEX
   HX - HEAT INDEX
  VSB - VISIBILITY
$$



USA.gov is the U.S. government's official web portal to all federal, state and local government web resources and services.